Regional Weather Roundup
Issued by NWS

Home | Current Version | Previous Version | Text Only | Print | Product List | Glossary On
Versions: 1 2 3 4 5 6 7 8 9 10 11 12 13 14 15 16 17 18 19 20 21 22 23 24 25 26 27 28 29 30 31 32 33 34 35 36 37 38 39 40 41 42 43 44 45 46 47 48 49 50
000
ASUS43 KDMX 281807
RWRIA

WEATHER ROUNDUP FOR IOWA
NATIONAL WEATHER SERVICE DES MOINES IA
100 PM CDT MON JUL 28 2014

NOTE: "FAIR" INDICATES FEW OR NO CLOUDS BELOW 12,000 FEET WITH NO
SIGNIFICANT WEATHER AND/OR OBSTRUCTIONS TO VISIBILITY.

* - THESE STATIONS ARE NOT NWS STATIONS...THUS NOT UNDER NWS
QUALITY CONTROL.  THEY ALSO DO NOT REPORT WEATHER SUCH
AS PRECIPITATION OR FOG.

IAZ001>003-012>014-020>022-031>034-043>046-281900-
   NORTHWEST IOWA

CITY           SKY/WX    TMP DP  RH WIND       PRES   REMARKS
CARROLL *      CLOUDY    70  57  64 W5        30.23F
CHEROKEE *     MOSUNNY   70  60  69 NW8       30.25F
DENISON *      PTSUNNY   70  61  73 NW10      30.24S
LE MARS *      MOSUNNY   72  59  64 NW9       30.26F
ORANGE CITY *  MOSUNNY   72  55  56 N8        30.26S
SHELDON *      PTSUNNY   70  57  64 N7        30.24F
SIOUX CITY     PTSUNNY   74  57  55 NW9       30.25F
6HR MIN TEMP:  57; 6HR MAX TEMP:  75;

SPENCER        CLOUDY    72  58  61 N9        30.24F
6HR MIN TEMP:  58; 6HR MAX TEMP:  72;

STORM LAKE *   PTSUNNY   68  63  83 NW9       30.25F
$$

IAZ055>058-069>071-079>083-090>094-281900-
   SOUTHWEST IOWA

CITY           SKY/WX    TMP DP  RH WIND       PRES   REMARKS
ATLANTIC *     PTSUNNY   70  61  73 W10       30.24S
AUDUBON *      SUNNY     73  63  68 CALM      30.25F
CLARINDA *     CLOUDY    70  61  73 VRB7      30.27S
COUNCIL BLFS * PTSUNNY   70  61  73 NW7       30.25F
CRESTON *      CLOUDY    70  55  60 NW5       30.24S
HARLAN  *      CLOUDY    70  61  73 NW8       30.29S
LAMONI         PTSUNNY   74  55  51 NE5       30.23S
6HR MIN TEMP:  61; 6HR MAX TEMP:  74;

RED OAK *      PTSUNNY   72  61  68 W6        30.25F
SHENANDOAH *   PTSUNNY   72  63  73 NW8       30.26F
$$

IAZ047>049-059>061-072>074-084-281900-
   CENTRAL IOWA

CITY           SKY/WX    TMP DP  RH WIND       PRES   REMARKS
AMES           PTSUNNY   71  55  56 NW7       30.21F
6HR MIN TEMP:  60; 6HR MAX TEMP:  73;

ANKENY *       MOSUNNY   72  54  53 NW3G12    30.21F
CHARITON *     MOSUNNY   72  52  49 CALM      30.21F
DES MOINES     PTSUNNY   74  54  49 N9        30.21F
6HR MIN TEMP:  62; 6HR MAX TEMP:  76;

GRINNELL*      CLOUDY    70  55  60 N7        30.21S
KNOXVILLE *    MOSUNNY   72  54  53 N10G18    30.19F
MARSHALLTOWN   PTSUNNY   71  57  61 N10       30.20F
6HR MIN TEMP:  57; 6HR MAX TEMP:  72;

PELLA *        MOSUNNY   74  56  53 N3        30.21F
PERRY *        CLOUDY    72  57  60 NW5       30.23S
$$

IAZ004>006-015-016-023>025-035-036-281900-
   NORTH CENTRAL IOWA

CITY           SKY/WX    TMP DP  RH WIND       PRES   REMARKS
ALGONA *       CLOUDY    70  59  68 VRB7      30.23F
CLARION *      PTSUNNY   70  57  64 VRB5      30.22F
ESTHERVILLE    CLOUDY    68  58  70 N6        30.23F
6HR MIN TEMP:  60; 6HR MAX TEMP:  70;

FORT DODGE *   CLOUDY    70  57  64 NE8       30.23F
MASON CITY     CLOUDY    73  53  49 N14       30.22F
6HR MIN TEMP:  60; 6HR MAX TEMP:  75;

FOREST CITY *  CLOUDY    72  55  56 N7        30.21F
IOWA FALLS *   CLOUDY    70  55  60 NW8       30.22F
$$

IAZ007>011-017>019-026>030-037>042-050>054-066-281900-
   NORTHEAST IOWA

CITY           SKY/WX    TMP DP  RH WIND       PRES   REMARKS
CEDAR RAPIDS   PTSUNNY   71  50  47 N10G18    30.17F
6HR MIN TEMP:  59; 6HR MAX TEMP:  73;

CHARLES CITY * CLOUDY    70  55  60 N9        30.20F
CLINTON *      MOSUNNY   70  50  49 NE12G20   30.18S
DECORAH *      PTSUNNY   70  50  49 VRB7G14   30.18S
DUBUQUE        MOSUNNY   69  49  48 N12       30.16F
6HR MIN TEMP:  56; 6HR MAX TEMP:  70;

MONTICELLO *   PTSUNNY   72  52  49 VRB5G14   30.16F
OELWEIN *      MOSUNNY   72  54  53 NE10      30.19F
WATERLOO       CLOUDY    71  55  56 N12       30.17F
6HR MIN TEMP:  57; 6HR MAX TEMP:  73;

$$

IAZ064-065-067-068-078-281900-
   EAST CENTRAL IOWA

CITY           SKY/WX    TMP DP  RH WIND       PRES   REMARKS
DAVENPORT      MOSUNNY   71  50  47 N15       30.16F
6HR MIN TEMP:  58; 6HR MAX TEMP:  71;

IOWA CITY      MOSUNNY   72  53  51 NE16G25   30.18F
6HR MIN TEMP:  61; 6HR MAX TEMP:  73;

MT. PLEASANT * SUNNY     72  51  47 N14G22    30.17S
MUSCATINE *    MOSUNNY   73  50  43 N12G21    30.16S
QUAD CITIES    SUNNY     72  49  44 N9G23     30.14F
6HR MIN TEMP:  62; 6HR MAX TEMP:  72;

$$

IAZ062-063-075>077-085>089-095>099-281900-
   SOUTHEAST IOWA

CITY           SKY/WX    TMP DP  RH WIND       PRES   REMARKS
BURLINGTON     MOSUNNY   72  54  53 N9G26     30.15F
6HR MIN TEMP:  63; 6HR MAX TEMP:  73;

FAIRFIELD *    PTSUNNY   70  54  56 N9G17     30.18F
FORT MADISON * PTSUNNY   73  55  53 N12       30.17S
KEOKUK *       PTSUNNY   72  54  53 N14       30.16S
OSKALOOSA *    PTSUNNY   71  56  58 N8        30.20F
CENTERVILLE *  SUNNY     73  54  49 NE6       30.22S
OTTUMWA        PTSUNNY   73  55  53 N13       30.19F
6HR MIN TEMP:  60; 6HR MAX TEMP:  74;

WASHINGTON *   MOSUNNY   72  54  53 N12       30.17F
$$

ABBREVIATIONS USED IN REMARKS
   TC - TEMPERATURES IN CELSIUS
  WCI - WIND CHILL INDEX
   HX - HEAT INDEX
  VSB - VISIBILITY
$$




USA.gov is the U.S. government's official web portal to all federal, state and local government web resources and services.